Location: ??? ?????
(30.6482°N, 60.5850°E)
Time: 07:48:43
(UTC+00:00)

Cosmos 1092 Rocket - Pass Details

Date: 09 April 2020
Orbit: 953 x 996 km, 83.0° (Epoch: 24 May)

Event Time Altitude Azimuth Distance (km) Brightness Sun altitude
Exits shadow 23:34:22 21° 173° (S) 2,077 5.5 -25.6°
Maximum altitude 23:38:47 72° 93° (E) 1,042 4.2 -24.7°
Drops below altitude 10° 23:45:04 10° 10° (N) 2,752 6.8 -23.5°
Sets 23:47:36 0° 9° (N) 3,698 7.5 -23.0°
